This is the latest recevied weather packets stored in our database for station/object N0FDH. If no packets are shown the sender has not sent any weather packets the latest 10 day(s).
| Time | Temp. | Humidity | Pressure | Rain* | Wind** | Luminosity | Snow |
|---|---|---|---|---|---|---|---|
| 1777867117 | 10.56° C | 53% | 1001.8 hPa | 0 mm | - | 0 W/m² | - |
| 1777866816 | 10.56° C | 51% | 1002.1 hPa | 0 mm | - | 0 W/m² | - |
| 1777866512 | 10.56° C | 52% | 1002.5 hPa | 0 mm | - | 0 W/m² | - |
| 1777866210 | 10.56° C | 52% | 1002.4 hPa | 0 mm | - | 0 W/m² | - |
| 1777865907 | 10.56° C | 53% | 1002.4 hPa | 0 mm | - | 0 W/m² | - |
| 1777865605 | 10.56° C | 50% | 1002.7 hPa | 0 mm | - | 0 W/m² | - |
| 1777865301 | 10.56° C | 52% | 1002.7 hPa | 0 mm | - | 0 W/m² | - |
| 1777864998 | 10.56° C | 51% | 1002.8 hPa | 0 mm | - | 0 W/m² | - |
| 1777864695 | 11.11° C | 50% | 1003 hPa | 0 mm | - | 0 W/m² | - |
| 1777864393 | 11.11° C | 48% | 1003 hPa | 0 mm | - | 0 W/m² | - |
| 1777864088 | 11.11° C | 49% | 1003.1 hPa | 0 mm | - | 0 W/m² | - |
| 1777863786 | 11.11° C | 50% | 1003.2 hPa | 0 mm | - | 0 W/m² | - |
| 1777863482 | 11.11° C | 49% | 1003.1 hPa | 0 mm | - | 0 W/m² | - |
| 1777863179 | 11.11° C | 52% | 1003.1 hPa | 0 mm | - | 0 W/m² | - |
| 1777862875 | 11.67° C | 48% | 1003.3 hPa | 0 mm | - | 0 W/m² | - |
| 1777862572 | 11.67° C | 44% | 1003.3 hPa | 0 mm | - | 0 W/m² | - |
| 1777862269 | 11.67° C | 45% | 1003.2 hPa | 0 mm | - | 0 W/m² | - |
| 1777861965 | 11.67° C | 46% | 1003.1 hPa | 0 mm | - | 0 W/m² | - |
| 1777861661 | 12.22° C | 45% | 1003.3 hPa | 0 mm | - | 0 W/m² | - |
| 1777861358 | 12.22° C | 44% | 1003.4 hPa | 0 mm | - | 0 W/m² | - |
| 1777861055 | 12.78° C | 45% | 1003.2 hPa | 0 mm | - | 0 W/m² | - |
| 1777860752 | 12.78° C | 43% | 1003.1 hPa | 0 mm | - | 0 W/m² | - |
| 1777860449 | 13.33° C | 44% | 1003.2 hPa | 0 mm | - | 0 W/m² | - |
| 1777860146 | 13.33° C | 41% | 1003.1 hPa | 0 mm | - | 0 W/m² | - |
| 1777859842 | 13.89° C | 41% | 1003.3 hPa | 0 mm | - | 0 W/m² | - |
* Rain latest hour (hover to see other rain measurements)
** Current wind speed in m/s (hover to see current wind gust speed)